{"data":{"norad_id":58300,"epoch":"2026-05-25T03:49:45.895008Z","epoch_age_seconds":57312,"freshness":"FRESH","line1":"1 58300U 23174AW  26145.15955897  .00001799  00000+0  11870-3 0  9995","line2":"2 58300  97.6170 200.5434 0097255 274.4659  84.5462 15.05000337138073","mean_motion":15.05000337,"eccentricity":0.0097255,"inclination_deg":97.617,"raan_deg":200.5434,"arg_perigee_deg":274.4659,"mean_anomaly_deg":84.5462,"bstar":0.0001187,"rev_number":13807,"period_min":95.681041697999,"perigee_km":484.11041785511,"apogee_km":618.89887754452,"semimajor_km":6929.6416476998,"source":"CELESTRAK","updated_at":"2026-05-25T13:38:00.647368Z"}}